{"data":{"norad_id":54381,"epoch":"2026-05-25T05:41:01.184064Z","epoch_age_seconds":47792,"freshness":"FRESH","line1":"1 54381U 22163A   26145.23681926 -.00000035  00000+0  28888-4 0  9996","line2":"2 54381  67.1467 163.0358 0006568 275.1670  84.8665 13.96676423177563","mean_motion":13.96676423,"eccentricity":0.0006568,"inclination_deg":67.1467,"raan_deg":163.0358,"arg_perigee_deg":275.167,"mean_anomaly_deg":84.8665,"bstar":2.8888e-5,"rev_number":17756,"period_min":103.101905086,"perigee_km":900.54314310008,"apogee_km":910.11070130829,"semimajor_km":7283.4639222042,"source":"CELESTRAK","updated_at":"2026-05-25T13:37:58.668281Z"}}